{"data":{"norad_id":48963,"intl_designator":"2021-059CN","name":"NAPA-2","alt_names":[],"object_type":"PAYLOAD","status":"ACTIVE","operator":null,"country":"THAI","launch_date":"2021-06-30","launch_site_code":"AFETR","launch_vehicle":null,"mission":null,"orbit_class":"UNKNOWN","rcs_meters":null,"size_class":null,"mass_kg":null,"dimensions":null,"purposes":[],"wikipedia_slug":null,"has_3d_model":false,"image_url":null,"decayed_at":null,"tle_current":{"epoch":"2026-07-04T12:35:42.719136Z","epoch_age_seconds":6834924,"freshness":"OLD","line1":"1 48963U 21059CN  26185.52479999  .05428234  26771-5  73507-3 0  9994","line2":"2 48963  97.6422  27.5145 0009830 257.2376 102.7822 16.35251072280608","mean_motion":16.35251072,"eccentricity":0.000983,"inclination_deg":97.6422,"raan_deg":27.5145,"arg_perigee_deg":257.2376,"mean_anomaly_deg":102.7822,"bstar":0.00073507,"rev_number":28060,"period_min":88.059871946074,"perigee_km":172.02073204011,"apogee_km":184.91101328777,"semimajor_km":6556.6028726639,"source":"CELESTRAK","updated_at":"2026-07-05T09:00:07.479268Z"}}}